Deer Park, WA
on Thursday, January 17, 2013

Thursday
Previous Day Next Day
Daily Summary
 ActualAverageRecord
Temperature
Mean Temperature °F 28°F  
Max Temperature 23°F 34°F 43°F (2011)
Min Temperature 6°F 22°F 6°F (2013)
Degree Days
Heating Degree Days 50 37  
Month to date heating degree days 735 657  
Since 1 July heating degree days 3528 3884  
Cooling Degree Days 0 0  
Month to date cooling degree days 0 0  
Year to date cooling degree days 0 0  
Moisture
Dew Point 15°F   
Average Humidity 92    
Maximum Humidity 100    
Minimum Humidity 84    
Precipitation
Precipitation 0.00 in 0.08 in 0.58 in (2005)
Month to date precipitation 1.11 1.66  
Year to date precipitation 1.11 1.66  
Wind
Wind Speed 1 mph   
Max Wind Speed 6 mph   
Max Gust Speed 6 mph   
Visibility 2 miles   
Events Fog   

Key: T is trace of precipitation, MM is missing value
Source: NWS Daily Summary
Time(PST)TemperatureDew PointHumidity Pressure Visibility Wind DirectionWind SpeedGust SpeedPrecipitationEvents Conditions
12:14 AM 10.4°F 6.8°F 85% 30.51 in 2.0 miles Calm Calm - N/A   Partly Cloudy
12:16 AM 10.4°F 6.8°F 85% 30.51 in 1.0 miles Calm Calm - N/A   Mist
12:23 AM 8.6°F 5.0°F 85% 30.51 in 0.5 miles Calm Calm - N/A Fog Light Freezing Fog
12:50 AM 8.6°F 6.8°F 92% 30.51 in 2.0 miles Calm Calm - N/A   Mostly Cloudy
12:53 AM 9.0°F 7.0°F 92% 30.61 in 3.0 miles Calm Calm - N/A   Scattered Clouds
1:08 AM 8.6°F 5.0°F 85% 30.51 in 7.0 miles Calm Calm - N/A   Mostly Cloudy
1:28 AM 6.8°F 5.0°F 92% 30.51 in 1.8 miles Calm Calm - N/A   Mostly Cloudy
1:36 AM 10.4°F 8.6°F 92% 30.51 in 0.5 miles Calm Calm - N/A Fog Light Freezing Fog
1:40 AM 10.4°F 6.8°F 85% 30.51 in 2.0 miles Calm Calm - N/A   Overcast
1:53 AM 9.0°F 6.1°F 88% 30.62 in 0.2 miles Calm Calm - N/A Fog Light Freezing Fog
2:53 AM 10.9°F 9.0°F 92% 30.62 in 0.8 miles Calm Calm - N/A   Overcast
2:58 AM 10.4°F 8.6°F 92% 30.51 in 2.0 miles Calm Calm - N/A   Overcast
3:10 AM 12.2°F 10.4°F 92% 30.51 in 1.8 miles Calm Calm - N/A   Overcast
3:13 AM 12.2°F 10.4°F 92% 30.51 in 3.0 miles WNW 3.5 mph - N/A   Overcast
4:53 AM 17.1°F 15.1°F 92% 30.61 in 5.0 miles WNW 3.5 mph - N/A   Overcast
5:22 AM 15.8°F 15.8°F 100% 30.50 in 2.0 miles WNW 3.5 mph - N/A   Overcast
5:30 AM 17.6°F 15.8°F 93% 30.50 in 1.5 miles Calm Calm - N/A   Overcast
5:45 AM 17.6°F 15.8°F 93% 30.50 in 0.8 miles Calm Calm - N/A   Mist
5:53 AM 17.1°F 14.0°F 88% 30.61 in 0.8 miles Calm Calm - N/A   Mist
6:53 AM 18.0°F 17.1°F 96% 30.61 in 1.0 miles Calm Calm - N/A   Mist
7:17 AM 17.6°F 15.8°F 93% 30.50 in 0.5 miles Calm Calm - N/A Fog Light Freezing Fog
7:53 AM 19.0°F 18.0°F 96% 30.63 in 0.2 miles Calm Calm - N/A Fog Light Freezing Fog
8:53 AM 19.0°F 17.1°F 92% 30.63 in 0.2 miles WSW 3.5 mph - N/A Fog Light Freezing Fog
9:53 AM 19.0°F 19.0°F 100% 30.65 in 0.2 miles Calm Calm - N/A Fog Light Freezing Fog
10:31 AM 19.4°F 19.4°F 100% 30.52 in 1.2 miles Calm Calm - N/A   Overcast
10:44 AM 19.4°F 19.4°F 100% 30.51 in 2.0 miles Calm Calm - N/A   Overcast
10:53 AM 19.9°F 19.0°F 96% 30.63 in 3.0 miles Calm Calm - N/A   Overcast
11:08 AM 19.4°F 19.4°F 100% 30.50 in 2.0 miles Calm Calm - N/A   Overcast
11:19 AM 21.2°F 19.4°F 93% 30.50 in 1.5 miles Calm Calm - N/A   Overcast
11:37 AM 21.2°F 21.2°F 100% 30.49 in 2.0 miles Calm Calm - N/A   Overcast
11:53 AM 21.0°F 19.9°F 96% 30.61 in 1.2 miles Calm Calm - N/A   Overcast
12:09 PM 21.2°F 21.2°F 100% 30.47 in 0.5 miles SSW 3.5 mph - N/A Fog Light Freezing Fog
12:53 PM 21.0°F 21.0°F 100% 30.58 in 0.5 miles Calm Calm - N/A Fog Light Freezing Fog
1:53 PM 21.9°F 21.9°F 100% 30.55 in 0.8 miles Calm Calm - N/A   Mist
2:53 PM 21.9°F 21.9°F 100% 30.54 in 0.2 miles Calm Calm - N/A Fog Light Freezing Fog
3:53 PM 21.9°F 21.0°F 96% 30.51 in 0.2 miles South 3.5 mph - N/A Fog Light Freezing Fog
4:53 PM 21.0°F 19.0°F 92% 30.52 in 0.2 miles Calm Calm - N/A Fog Light Freezing Fog
5:53 PM 19.9°F 18.0°F 92% 30.51 in 0.2 miles West 3.5 mph - N/A Fog Light Freezing Fog
6:53 PM 19.0°F 18.0°F 96% 30.48 in 0.5 miles SSE 3.5 mph - N/A Fog Light Freezing Fog
7:53 PM 18.0°F 17.1°F 96% 30.48 in 0.5 miles Calm Calm - N/A Fog Light Freezing Fog
8:24 PM 17.6°F 15.8°F 93% 30.37 in 2.0 miles NNE 3.5 mph - N/A   Overcast
8:31 PM 17.6°F 15.8°F 93% 30.37 in 6.0 miles Calm Calm - N/A   Overcast
8:53 PM 18.0°F 16.0°F 92% 30.47 in 5.0 miles Calm Calm - N/A   Overcast
9:07 PM 17.6°F 15.8°F 93% 30.36 in 1.8 miles Calm Calm - N/A   Overcast
9:15 PM 17.6°F 15.8°F 93% 30.36 in 0.2 miles Calm Calm - N/A Fog Light Freezing Fog
9:53 PM 18.0°F 16.0°F 92% 30.45 in 0.2 miles Calm Calm - N/A Fog Light Freezing Fog
10:53 PM 18.0°F 17.1°F 96% 30.45 in 0.5 miles Calm Calm - N/A Fog Light Freezing Fog
11:23 PM 17.6°F 15.8°F 93% 30.34 in 2.0 miles Calm Calm - N/A   Overcast
11:31 PM 17.6°F 15.8°F 93% 30.34 in 3.0 miles Calm Calm - N/A   Overcast
11:53 PM 18.0°F 16.0°F 92% 30.44 in 2.0 miles Calm Calm - N/A   Overcast
Moon Phase
Jan. 17 Jan. 18 Jan. 26 Feb. 03 Feb. 10
Sunrise:07:32 AM (PST) Moon Rise:10:08 AM (PST)1/17
Sunset:04:27 PM (PST) Moon Set:11:59 PM (PST)1/17

Copyright © 2014 The Weather Underground, Inc.